{"data":{"norad_id":61259,"intl_designator":"2024-175S","name":"STARLINK-32435","alt_names":[],"object_type":"PAYLOAD","status":"ACTIVE","operator":null,"country":"US","launch_date":"2024-09-25","launch_site_code":"AFWTR","launch_vehicle":null,"mission":null,"orbit_class":"UNKNOWN","rcs_meters":null,"size_class":null,"mass_kg":null,"dimensions":null,"purposes":["comms"],"wikipedia_slug":null,"has_3d_model":false,"image_url":null,"decayed_at":null,"tle_current":{"epoch":"2026-09-21T13:08:05.924256Z","epoch_age_seconds":101674,"freshness":"FRESH","line1":"1 61259U 24175S   26264.54729079 -.00000782  00000+0 -12011-4 0  9992","line2":"2 61259  53.1597   0.5190 0001047  85.8923 274.2200 15.34390684111493","mean_motion":15.34390684,"eccentricity":0.0001047,"inclination_deg":53.1597,"raan_deg":0.519,"arg_perigee_deg":85.8923,"mean_anomaly_deg":274.22,"bstar":-1.2011e-5,"rev_number":11149,"period_min":93.848327874754,"perigee_km":462.01469059024,"apogee_km":463.44716833467,"semimajor_km":6840.8679294625,"source":"CELESTRAK","updated_at":"2026-09-22T09:00:49.351471Z"}}}